Current weather by "City, St" or "zip code"  
 

Current Conditions: Watertown, Watertown International Airport, NY

Overcast


76.0 F

Last Updated on May 21 2022, 5:56 am EDT
Humidity: 67%
Wind Speed: S 13.8 mph
Barometer 29.80 in
Dewpoint: 64.0 F
Visibility: 10.00 mi
Precip: --
Heat Index: NA
Wind Chill: NA
Current conditions at:

Watertown, Watertown International Airport, NY (KART)

Lat: 43.99194 Lon: 76.02167

Local Radar Image active severe weather and emergency alerts image image weather storm and storm spotter reports image weather observation monitoring service image
Local
Radar
Active
Alerts
Storm Reports Obs
Monitoring

Sign-up For Email & Text Message Weather Alert Notification Services



Advertise Here

Observation History for Watertown, Watertown International Airport, NY


Time Wind
(mph)
Vis
(mi)
Weather Precip (in) Temperature (F) Relative
Humidity
Wind
Chill
(F)
Heat
Index
(F)
Pressure
Air Dwpt altimeter
(in)
sea level
(mb)
Rmks
5:56 am EDT S 13.8 10.00 Overcast -- 76.0 64.0 67% NA NA 29.80 1008.6
4:56 am EDT S 10.4 G 20.7 10.00 Partly Cloudy -- 75.0 64.0 69% NA NA 29.78 1007.8
3:56 am EDT S 12.7 G 21.9 10.00 Fair -- 73.0 63.0 71% NA NA 29.76 1007.0
2:56 am EDT S 15.0 G 23.0 10.00 Fair -- 73.0 63.0 71% NA NA 29.73 1006.2
1:56 am EDT S 11.5 10.00 Fair -- 73.0 63.0 71% NA NA 29.75 1006.7
12:56 am EDT S 9.2 G 18.4 10.00 Mostly Cloudy -- 73.0 63.0 71% NA NA 29.76 1007.2
11:56 pm EDT S 10.4 G 18.4 10.00 Fair -- 72.0 62.1 71% NA NA 29.77 1007.4
10:56 pm EDT S 8.1 10.00 Fair -- 72.0 61.0 68% NA NA 29.78 1007.9
9:56 pm EDT SW 9.2 10.00 Fair -- 74.0 60.1 62% NA NA 29.78 1007.8
8:56 pm EDT S 5.8 10.00 Fair -- 74.0 59.0 60% NA NA 29.71 1005.4
7:56 pm EDT S 8.1 10.00 Fair -- 78.0 59.0 52% NA NA 29.70 1005.3
5:56 pm EDT S 10.4 G 21.9 10.00 Fair -- 82.0 59.0 46% NA 82 29.69 1004.9
4:56 pm EDT S 12.7 G 25.3 10.00 Fair -- 82.0 60.1 47% NA 82 29.69 1005.0
3:56 pm EDT 6.9 G 18.4 10.00 Fair -- 82.0 62.1 51% NA 83 29.71 1005.8
2:56 pm EDT S 11.5 G 23.0 10.00 Fair -- 82.0 60.1 47% NA 82 29.72 1006.0
11:56 am EDT S 10.4 G 23.0 10.00 Fair -- 77.0 57.0 50% NA NA 29.75 1007.1
10:56 am EDT S 13.8 G 20.7 10.00 Fair -- 76.0 57.9 54% NA NA 29.76 1007.4
9:56 am EDT S 8.1 10.00 Fair -- 72.0 57.9 61% NA NA 29.75 1007.3
8:56 am EDT E 3.5 10.00 A Few Clouds -- 63.0 57.0 81% NA NA 29.78 1008.1
7:56 am EDT E 4.6 10.00 Mostly Cloudy Trace 57.0 53.1 87% 57 NA 29.79 1008.8

Regional Weather Observation


Fort Drum / Wheeler-Sack U. S. Army Airfield, NY (KGTB)

Overcast
71.0 F

Ogdensburg International Airport, NY (KOGS)

Fair
70.0 F

Fulton, Oswego County Airport, NY (KFZY)

Fair
71.0 F

Syracuse, Syracuse Hancock International Airport, NY (KSYR)

Mostly Cloudy
70.0 F

Griffiss Air Force Base / Rome, NY (KRME)

Fair
67.0 F

Potsdam Municipal Airport/Damon Field, NY (KPTD)

A Few Clouds
75.0 F

Advertise Here


Advertise Here